LOCATION_NAME,SAMPLE COLLECTION TIME,DOSE EQUIVALENT RATE (nSv/h),GAMMA COUNT RATE R02 (CPM),GAMMA COUNT RATE R03 (CPM),GAMMA COUNT RATE R04 (CPM),GAMMA COUNT RATE R05 (CPM),GAMMA COUNT RATE R06 (CPM),GAMMA COUNT RATE R07 (CPM),GAMMA COUNT RATE R08 (CPM),GAMMA COUNT RATE R09 (CPM),STATUS
PA: PITTSBURGH,01/01/2010 00:33:00,,2361.00,1553.00,450.00,243.00,146.00,182.00,117.00,59.00,APPROVED
PA: PITTSBURGH,01/01/2010 01:34:00,,2326.00,1540.00,447.00,244.00,145.00,177.00,120.00,60.00,APPROVED
PA: PITTSBURGH,01/01/2010 02:34:00,,2330.00,1528.00,446.00,245.00,149.00,180.00,117.00,58.00,APPROVED
PA: PITTSBURGH,01/01/2010 03:34:00,,2313.00,1520.00,448.00,236.00,148.00,178.00,116.00,59.00,APPROVED
PA: PITTSBURGH,01/01/2010 04:34:00,,2320.00,1519.00,448.00,236.00,148.00,176.00,117.00,57.00,APPROVED
PA: PITTSBURGH,01/01/2010 05:34:00,,2304.00,1525.00,445.00,236.00,148.00,174.00,116.00,57.00,APPROVED
PA: PITTSBURGH,01/01/2010 06:34:00,,2328.00,1542.00,447.00,237.00,149.00,177.00,119.00,58.00,APPROVED
PA: PITTSBURGH,01/01/2010 07:35:00,,2319.00,1525.00,445.00,245.00,144.00,177.00,117.00,57.00,APPROVED
PA: PITTSBURGH,01/01/2010 08:35:00,,2392.00,1591.00,467.00,250.00,149.00,186.00,122.00,59.00,APPROVED
PA: PITTSBURGH,01/01/2010 09:35:00,,2455.00,1665.00,482.00,262.00,155.00,194.00,121.00,59.00,APPROVED
PA: PITTSBURGH,01/01/2010 10:35:00,,2396.00,1593.00,474.00,252.00,151.00,186.00,118.00,59.00,APPROVED
PA: PITTSBURGH,01/01/2010 11:35:00,,2359.00,1573.00,463.00,247.00,152.00,188.00,117.00,58.00,APPROVED
PA: PITTSBURGH,01/01/2010 12:36:00,,2317.00,1544.00,451.00,240.00,146.00,185.00,116.00,57.00,APPROVED
PA: PITTSBURGH,01/01/2010 13:36:00,,2327.00,1520.00,446.00,232.00,145.00,182.00,111.00,57.00,APPROVED
PA: PITTSBURGH,01/01/2010 14:36:00,,2322.00,1528.00,450.00,235.00,146.00,186.00,115.00,59.00,APPROVED
PA: PITTSBURGH,01/01/2010 15:36:00,,2413.00,1618.00,477.00,247.00,151.00,193.00,116.00,60.00,APPROVED
PA: PITTSBURGH,01/01/2010 16:36:00,,2391.00,1588.00,476.00,240.00,151.00,194.00,110.00,57.00,APPROVED
PA: PITTSBURGH,01/01/2010 17:37:00,,2493.00,1670.00,502.00,251.00,158.00,205.00,114.00,60.00,APPROVED
PA: PITTSBURGH,01/01/2010 18:37:00,,2441.00,1635.00,492.00,245.00,153.00,204.00,112.00,58.00,APPROVED
PA: PITTSBURGH,01/01/2010 19:37:00,,2345.00,1531.00,462.00,229.00,146.00,189.00,107.00,57.00,APPROVED
PA: PITTSBURGH,01/01/2010 20:37:00,,2328.00,1509.00,452.00,224.00,144.00,186.00,103.00,59.00,APPROVED
PA: PITTSBURGH,01/01/2010 21:37:00,,2306.00,1489.00,450.00,221.00,145.00,187.00,103.00,57.00,APPROVED
PA: PITTSBURGH,01/01/2010 22:38:00,,2278.00,1477.00,440.00,214.00,141.00,181.00,98.00,58.00,APPROVED
PA: PITTSBURGH,01/01/2010 23:38:00,,2243.00,1425.00,428.00,206.00,136.00,173.00,95.00,56.00,APPROVED
PA: PITTSBURGH,01/02/2010 00:38:00,,2214.00,1389.00,413.00,201.00,137.00,170.00,91.00,56.00,APPROVED
PA: PITTSBURGH,01/02/2010 01:38:00,,2217.00,1382.00,420.00,202.00,133.00,171.00,89.00,56.00,APPROVED
PA: PITTSBURGH,01/02/2010 02:38:00,,2243.00,1409.00,420.00,204.00,134.00,177.00,90.00,56.00,APPROVED
PA: PITTSBURGH,01/02/2010 03:39:00,,2256.00,1421.00,432.00,204.00,138.00,177.00,90.00,57.00,APPROVED
PA: PITTSBURGH,01/02/2010 04:39:00,,2248.00,1432.00,435.00,207.00,137.00,182.00,92.00,56.00,APPROVED
PA: PITTSBURGH,01/02/2010 05:39:00,,2264.00,1439.00,436.00,209.00,138.00,184.00,91.00,56.00,APPROVED
PA: PITTSBURGH,01/02/2010 06:39:00,,2275.00,1456.00,441.00,212.00,140.00,183.00,95.00,58.00,APPROVED
PA: PITTSBURGH,01/02/2010 07:39:00,,2238.00,1422.00,434.00,211.00,137.00,179.00,93.00,56.00,APPROVED
PA: PITTSBURGH,01/02/2010 08:40:00,,2115.00,1303.00,392.00,192.00,126.00,167.00,85.00,55.00,APPROVED
PA: PITTSBURGH,01/02/2010 09:40:00,,2089.00,1273.00,377.00,182.00,124.00,158.00,87.00,53.00,APPROVED
PA: PITTSBURGH,01/02/2010 10:40:00,,2076.00,1259.00,381.00,180.00,125.00,156.00,85.00,56.00,APPROVED
PA: PITTSBURGH,01/02/2010 11:40:00,,2084.00,1269.00,378.00,180.00,125.00,151.00,84.00,54.00,APPROVED
PA: PITTSBURGH,01/02/2010 12:40:00,,2068.00,1254.00,377.00,178.00,121.00,154.00,85.00,54.00,APPROVED
PA: PITTSBURGH,01/02/2010 13:41:00,,2061.00,1253.00,374.00,179.00,126.00,154.00,86.00,56.00,APPROVED
PA: PITTSBURGH,01/02/2010 14:41:00,,2074.00,1252.00,374.00,178.00,124.00,153.00,83.00,55.00,APPROVED
PA: PITTSBURGH,01/02/2010 15:41:00,,2081.00,1260.00,372.00,181.00,127.00,152.00,84.00,53.00,APPROVED
PA: PITTSBURGH,01/02/2010 16:41:00,,2076.00,1260.00,375.00,186.00,122.00,156.00,84.00,53.00,APPROVED
PA: PITTSBURGH,01/02/2010 17:41:00,,2078.00,1256.00,372.00,180.00,124.00,157.00,83.00,54.00,APPROVED
PA: PITTSBURGH,01/02/2010 18:42:00,,2090.00,1253.00,379.00,182.00,125.00,153.00,84.00,54.00,APPROVED
PA: PITTSBURGH,01/02/2010 19:42:00,,2091.00,1282.00,380.00,184.00,124.00,159.00,85.00,53.00,APPROVED
PA: PITTSBURGH,01/02/2010 20:42:00,,2080.00,1267.00,377.00,178.00,125.00,157.00,84.00,53.00,APPROVED
PA: PITTSBURGH,01/02/2010 21:42:00,,2068.00,1261.00,377.00,181.00,122.00,157.00,84.00,53.00,APPROVED
PA: PITTSBURGH,01/02/2010 22:42:00,,2063.00,1250.00,377.00,179.00,124.00,157.00,85.00,52.00,APPROVED
PA: PITTSBURGH,01/02/2010 23:43:00,,2055.00,1258.00,375.00,180.00,124.00,153.00,85.00,52.00,APPROVED
PA: PITTSBURGH,01/03/2010 00:43:00,,2059.00,1258.00,373.00,182.00,120.00,157.00,85.00,54.00,APPROVED
PA: PITTSBURGH,01/03/2010 01:43:00,,2061.00,1258.00,375.00,179.00,126.00,149.00,87.00,53.00,APPROVED
PA: PITTSBURGH,01/03/2010 02:43:00,,2055.00,1256.00,376.00,183.00,123.00,152.00,85.00,53.00,APPROVED
PA: PITTSBURGH,01/03/2010 03:43:00,,2051.00,1263.00,375.00,178.00,124.00,154.00,87.00,54.00,APPROVED
PA: PITTSBURGH,01/03/2010 04:44:00,,2063.00,1255.00,375.00,181.00,126.00,153.00,85.00,54.00,APPROVED
PA: PITTSBURGH,01/03/2010 05:44:00,,2064.00,1256.00,376.00,183.00,122.00,155.00,87.00,55.00,APPROVED
PA: PITTSBURGH,01/03/2010 06:44:00,,2055.00,1262.00,377.00,183.00,125.00,155.00,88.00,57.00,APPROVED
PA: PITTSBURGH,01/03/2010 07:44:00,,2068.00,1260.00,376.00,186.00,125.00,154.00,86.00,54.00,APPROVED
PA: PITTSBURGH,01/03/2010 08:44:00,,2067.00,1262.00,381.00,186.00,125.00,156.00,89.00,56.00,APPROVED
PA: PITTSBURGH,01/03/2010 09:45:00,,2078.00,1265.00,377.00,185.00,125.00,155.00,89.00,52.00,APPROVED
PA: PITTSBURGH,01/03/2010 10:45:00,,2058.00,1273.00,382.00,186.00,127.00,156.00,88.00,54.00,APPROVED
PA: PITTSBURGH,01/03/2010 11:45:00,,2060.00,1266.00,380.00,186.00,127.00,155.00,88.00,53.00,APPROVED
PA: PITTSBURGH,01/03/2010 12:45:00,,2053.00,1265.00,378.00,185.00,125.00,155.00,90.00,53.00,APPROVED
PA: PITTSBURGH,01/03/2010 13:45:00,,2059.00,1263.00,381.00,185.00,125.00,153.00,91.00,53.00,APPROVED
PA: PITTSBURGH,01/03/2010 14:46:00,,2057.00,1261.00,381.00,185.00,127.00,153.00,89.00,53.00,APPROVED
PA: PITTSBURGH,01/03/2010 15:46:00,,2066.00,1271.00,382.00,183.00,124.00,154.00,90.00,56.00,APPROVED
PA: PITTSBURGH,01/03/2010 16:46:00,,2061.00,1266.00,380.00,186.00,128.00,157.00,86.00,52.00,APPROVED
PA: PITTSBURGH,01/03/2010 17:46:00,,2065.00,1275.00,382.00,184.00,126.00,154.00,87.00,55.00,APPROVED
PA: PITTSBURGH,01/03/2010 18:46:00,,2075.00,1273.00,382.00,182.00,127.00,158.00,87.00,53.00,APPROVED
PA: PITTSBURGH,01/03/2010 19:46:00,,2086.00,1269.00,379.00,185.00,124.00,156.00,83.00,55.00,APPROVED
PA: PITTSBURGH,01/03/2010 20:47:00,,2098.00,1275.00,381.00,184.00,126.00,157.00,85.00,54.00,APPROVED
PA: PITTSBURGH,01/03/2010 21:47:00,,2090.00,1278.00,385.00,183.00,128.00,160.00,87.00,53.00,APPROVED
PA: PITTSBURGH,01/03/2010 22:47:00,,2096.00,1285.00,382.00,183.00,126.00,159.00,87.00,55.00,APPROVED
PA: PITTSBURGH,01/03/2010 23:47:00,,2088.00,1282.00,384.00,186.00,126.00,158.00,87.00,54.00,APPROVED
PA: PITTSBURGH,01/04/2010 00:47:00,,2100.00,1294.00,387.00,187.00,125.00,157.00,89.00,54.00,APPROVED
PA: PITTSBURGH,01/04/2010 01:48:00,,2115.00,1300.00,391.00,190.00,129.00,163.00,88.00,55.00,APPROVED
PA: PITTSBURGH,01/04/2010 02:48:00,,2119.00,1308.00,397.00,186.00,127.00,160.00,86.00,54.00,APPROVED
PA: PITTSBURGH,01/04/2010 03:48:00,,2131.00,1323.00,394.00,193.00,130.00,162.00,88.00,53.00,APPROVED
PA: PITTSBURGH,01/04/2010 04:48:00,,2135.00,1326.00,395.00,191.00,128.00,161.00,89.00,55.00,APPROVED
PA: PITTSBURGH,01/04/2010 05:48:00,,2130.00,1334.00,402.00,192.00,133.00,165.00,88.00,54.00,APPROVED
PA: PITTSBURGH,01/04/2010 06:49:00,,2147.00,1328.00,400.00,195.00,130.00,166.00,89.00,55.00,APPROVED
PA: PITTSBURGH,01/04/2010 07:49:00,,2136.00,1329.00,402.00,194.00,131.00,166.00,88.00,55.00,APPROVED
PA: PITTSBURGH,01/04/2010 08:49:00,,2150.00,1335.00,404.00,195.00,131.00,166.00,86.00,56.00,APPROVED
PA: PITTSBURGH,01/04/2010 09:49:00,,2166.00,1349.00,412.00,197.00,133.00,167.00,90.00,55.00,APPROVED
PA: PITTSBURGH,01/04/2010 10:49:00,,2173.00,1355.00,408.00,199.00,133.00,168.00,91.00,55.00,APPROVED
PA: PITTSBURGH,01/04/2010 11:50:00,,2158.00,1359.00,405.00,200.00,130.00,169.00,90.00,54.00,APPROVED
PA: PITTSBURGH,01/04/2010 12:50:00,,2164.00,1348.00,409.00,196.00,130.00,170.00,92.00,53.00,APPROVED
PA: PITTSBURGH,01/04/2010 13:17:00,,2175.00,1351.00,409.00,194.00,133.00,167.00,91.00,55.00,APPROVED
PA: PITTSBURGH,01/04/2010 14:34:00,,2105.00,1286.00,382.00,183.00,127.00,157.00,85.00,53.00,APPROVED
PA: PITTSBURGH,01/04/2010 15:34:00,,2119.00,1307.00,387.00,187.00,126.00,164.00,84.00,55.00,APPROVED
PA: PITTSBURGH,01/04/2010 16:34:00,,2128.00,1309.00,393.00,191.00,129.00,166.00,85.00,55.00,APPROVED
PA: PITTSBURGH,01/04/2010 17:34:00,,2134.00,1312.00,395.00,190.00,128.00,166.00,86.00,54.00,APPROVED
PA: PITTSBURGH,01/04/2010 18:34:00,,2138.00,1317.00,394.00,192.00,128.00,167.00,85.00,55.00,APPROVED
PA: PITTSBURGH,01/04/2010 19:35:00,,2118.00,1307.00,392.00,187.00,126.00,163.00,85.00,53.00,APPROVED
PA: PITTSBURGH,01/04/2010 20:35:00,,2113.00,1280.00,384.00,183.00,125.00,158.00,83.00,54.00,APPROVED
PA: PITTSBURGH,01/04/2010 21:35:00,,2093.00,1270.00,378.00,182.00,123.00,160.00,81.00,54.00,APPROVED
PA: PITTSBURGH,01/04/2010 22:35:00,,2087.00,1275.00,377.00,182.00,124.00,159.00,83.00,54.00,APPROVED
PA: PITTSBURGH,01/04/2010 23:35:00,,2082.00,1254.00,378.00,185.00,122.00,157.00,80.00,54.00,APPROVED
PA: PITTSBURGH,01/05/2010 00:36:00,,2080.00,1263.00,379.00,178.00,123.00,157.00,82.00,53.00,APPROVED
PA: PITTSBURGH,01/05/2010 01:36:00,,2085.00,1256.00,378.00,181.00,123.00,159.00,82.00,52.00,APPROVED
PA: PITTSBURGH,01/05/2010 02:36:00,,2090.00,1258.00,380.00,181.00,127.00,158.00,81.00,53.00,APPROVED
PA: PITTSBURGH,01/05/2010 03:36:00,,2090.00,1267.00,377.00,183.00,128.00,162.00,84.00,54.00,APPROVED
PA: PITTSBURGH,01/05/2010 04:36:00,,2102.00,1271.00,381.00,183.00,125.00,160.00,83.00,56.00,APPROVED
PA: PITTSBURGH,01/05/2010 05:37:00,,2112.00,1286.00,386.00,188.00,125.00,161.00,82.00,53.00,APPROVED
PA: PITTSBURGH,01/05/2010 06:37:00,,2128.00,1292.00,387.00,189.00,127.00,161.00,83.00,54.00,APPROVED
PA: PITTSBURGH,01/05/2010 07:37:00,,2102.00,1282.00,388.00,183.00,124.00,159.00,81.00,53.00,APPROVED
PA: PITTSBURGH,01/05/2010 08:37:00,,2096.00,1280.00,386.00,183.00,125.00,159.00,83.00,53.00,APPROVED
PA: PITTSBURGH,01/05/2010 09:37:00,,2096.00,1275.00,381.00,183.00,124.00,161.00,85.00,54.00,APPROVED
PA: PITTSBURGH,01/05/2010 10:37:00,,2108.00,1294.00,383.00,185.00,126.00,161.00,82.00,51.00,APPROVED
PA: PITTSBURGH,01/05/2010 11:38:00,,2113.00,1286.00,381.00,188.00,124.00,159.00,86.00,53.00,APPROVED
PA: PITTSBURGH,01/05/2010 12:38:00,,2096.00,1279.00,385.00,183.00,123.00,160.00,82.00,54.00,APPROVED
PA: PITTSBURGH,01/05/2010 13:38:00,,2098.00,1274.00,376.00,183.00,122.00,160.00,84.00,54.00,APPROVED
PA: PITTSBURGH,01/05/2010 14:38:00,,2091.00,1280.00,379.00,177.00,123.00,161.00,80.00,54.00,APPROVED
PA: PITTSBURGH,01/05/2010 15:38:00,,2105.00,1278.00,380.00,182.00,126.00,159.00,83.00,53.00,APPROVED
PA: PITTSBURGH,01/05/2010 16:39:00,,2157.00,1325.00,396.00,189.00,126.00,164.00,86.00,54.00,APPROVED
PA: PITTSBURGH,01/05/2010 17:39:00,,2185.00,1367.00,404.00,196.00,131.00,171.00,92.00,55.00,APPROVED
PA: PITTSBURGH,01/05/2010 18:39:00,,2168.00,1347.00,410.00,196.00,131.00,169.00,92.00,54.00,APPROVED
PA: PITTSBURGH,01/05/2010 19:39:00,,2149.00,1339.00,403.00,192.00,131.00,164.00,90.00,55.00,APPROVED
PA: PITTSBURGH,01/05/2010 20:39:00,,2139.00,1314.00,393.00,189.00,129.00,168.00,88.00,55.00,APPROVED
PA: PITTSBURGH,01/05/2010 21:40:00,,2116.00,1299.00,389.00,192.00,128.00,159.00,86.00,54.00,APPROVED
PA: PITTSBURGH,01/05/2010 22:40:00,,2092.00,1289.00,385.00,185.00,126.00,159.00,88.00,54.00,APPROVED
PA: PITTSBURGH,01/05/2010 23:40:00,,2132.00,1317.00,388.00,186.00,129.00,160.00,88.00,55.00,APPROVED
PA: PITTSBURGH,01/06/2010 00:40:00,,2164.00,1330.00,399.00,194.00,126.00,168.00,89.00,55.00,APPROVED
PA: PITTSBURGH,01/06/2010 01:40:00,,2208.00,1382.00,416.00,200.00,135.00,173.00,88.00,56.00,APPROVED
PA: PITTSBURGH,01/06/2010 02:41:00,,2237.00,1422.00,428.00,205.00,138.00,180.00,90.00,55.00,APPROVED
PA: PITTSBURGH,01/06/2010 03:41:00,,2274.00,1452.00,437.00,211.00,135.00,183.00,97.00,56.00,APPROVED
PA: PITTSBURGH,01/06/2010 04:41:00,,2254.00,1453.00,446.00,213.00,141.00,182.00,97.00,57.00,APPROVED
PA: PITTSBURGH,01/06/2010 05:41:00,,2181.00,1371.00,413.00,198.00,135.00,173.00,93.00,55.00,APPROVED
PA: PITTSBURGH,01/06/2010 06:41:00,,2141.00,1344.00,402.00,196.00,131.00,163.00,90.00,54.00,APPROVED
PA: PITTSBURGH,01/06/2010 07:42:00,,2176.00,1351.00,409.00,195.00,132.00,167.00,92.00,55.00,APPROVED
PA: PITTSBURGH,01/06/2010 08:42:00,,2220.00,1402.00,423.00,205.00,134.00,175.00,97.00,55.00,APPROVED
PA: PITTSBURGH,01/06/2010 09:42:00,,2277.00,1470.00,441.00,218.00,139.00,185.00,99.00,56.00,APPROVED
PA: PITTSBURGH,01/06/2010 10:42:00,,2258.00,1462.00,443.00,215.00,138.00,183.00,96.00,59.00,APPROVED
PA: PITTSBURGH,01/06/2010 11:42:00,,2243.00,1442.00,440.00,212.00,138.00,181.00,98.00,57.00,APPROVED
PA: PITTSBURGH,01/06/2010 12:43:00,,2255.00,1450.00,441.00,219.00,135.00,182.00,99.00,57.00,APPROVED
PA: PITTSBURGH,01/06/2010 13:43:00,,2254.00,1445.00,442.00,213.00,139.00,181.00,100.00,55.00,APPROVED
PA: PITTSBURGH,01/06/2010 15:43:00,,2277.00,1444.00,432.00,210.00,136.00,175.00,99.00,55.00,APPROVED
PA: PITTSBURGH,01/06/2010 16:44:00,,2262.00,1450.00,438.00,221.00,136.00,179.00,101.00,57.00,APPROVED
PA: PITTSBURGH,01/06/2010 17:44:00,,2217.00,1423.00,427.00,212.00,134.00,176.00,98.00,55.00,APPROVED
PA: PITTSBURGH,01/06/2010 18:44:00,,2223.00,1417.00,425.00,213.00,135.00,174.00,101.00,58.00,APPROVED
PA: PITTSBURGH,01/06/2010 19:44:00,,2199.00,1402.00,413.00,209.00,135.00,171.00,98.00,56.00,APPROVED
PA: PITTSBURGH,01/06/2010 20:44:00,,2145.00,1368.00,407.00,201.00,132.00,166.00,98.00,56.00,APPROVED
PA: PITTSBURGH,01/06/2010 21:45:00,,2134.00,1337.00,397.00,199.00,130.00,161.00,92.00,54.00,APPROVED
PA: PITTSBURGH,01/06/2010 22:45:00,,2161.00,1349.00,402.00,198.00,128.00,168.00,92.00,54.00,APPROVED
PA: PITTSBURGH,01/06/2010 23:45:00,,2204.00,1415.00,419.00,209.00,137.00,172.00,99.00,56.00,APPROVED
PA: PITTSBURGH,01/07/2010 00:45:00,,2307.00,1503.00,448.00,228.00,143.00,189.00,102.00,55.00,APPROVED
PA: PITTSBURGH,01/07/2010 01:45:00,,2342.00,1540.00,461.00,234.00,146.00,187.00,107.00,57.00,APPROVED
PA: PITTSBURGH,01/07/2010 02:46:00,,2291.00,1504.00,454.00,229.00,142.00,188.00,104.00,57.00,APPROVED
PA: PITTSBURGH,01/07/2010 03:46:00,,2252.00,1464.00,445.00,223.00,140.00,184.00,102.00,58.00,APPROVED
PA: PITTSBURGH,01/07/2010 04:46:00,,2226.00,1440.00,432.00,216.00,139.00,177.00,104.00,57.00,APPROVED
PA: PITTSBURGH,01/07/2010 05:46:00,,2203.00,1434.00,429.00,217.00,135.00,180.00,101.00,58.00,APPROVED
PA: PITTSBURGH,01/07/2010 06:46:00,,2222.00,1459.00,435.00,216.00,138.00,179.00,104.00,56.00,APPROVED
PA: PITTSBURGH,01/07/2010 07:47:00,,2269.00,1484.00,452.00,226.00,141.00,189.00,101.00,56.00,APPROVED
PA: PITTSBURGH,01/07/2010 08:47:00,,2247.00,1461.00,443.00,218.00,141.00,183.00,102.00,56.00,APPROVED
PA: PITTSBURGH,01/07/2010 09:47:00,,2232.00,1441.00,438.00,216.00,138.00,181.00,100.00,57.00,APPROVED
PA: PITTSBURGH,01/07/2010 10:47:00,,2264.00,1475.00,447.00,219.00,141.00,184.00,100.00,56.00,APPROVED
PA: PITTSBURGH,01/07/2010 11:47:00,,2282.00,1497.00,454.00,224.00,143.00,186.00,102.00,56.00,APPROVED
PA: PITTSBURGH,01/07/2010 12:48:00,,2251.00,1479.00,452.00,221.00,140.00,185.00,104.00,56.00,APPROVED
PA: PITTSBURGH,01/07/2010 13:48:00,,2237.00,1447.00,441.00,216.00,138.00,183.00,101.00,57.00,APPROVED
PA: PITTSBURGH,01/07/2010 14:48:00,,2226.00,1445.00,438.00,215.00,140.00,182.00,100.00,57.00,APPROVED
PA: PITTSBURGH,01/07/2010 15:48:00,,2200.00,1411.00,428.00,208.00,136.00,174.00,99.00,55.00,APPROVED
PA: PITTSBURGH,01/07/2010 16:48:00,,2178.00,1379.00,412.00,202.00,134.00,167.00,96.00,54.00,APPROVED
PA: PITTSBURGH,01/07/2010 17:49:00,,2157.00,1356.00,408.00,202.00,129.00,169.00,93.00,55.00,APPROVED
PA: PITTSBURGH,01/07/2010 18:49:00,,2154.00,1339.00,404.00,197.00,128.00,167.00,93.00,53.00,APPROVED
PA: PITTSBURGH,01/07/2010 19:49:00,,2154.00,1339.00,401.00,195.00,125.00,165.00,92.00,55.00,APPROVED
PA: PITTSBURGH,01/07/2010 20:49:00,,2139.00,1320.00,395.00,193.00,126.00,163.00,91.00,57.00,APPROVED
PA: PITTSBURGH,01/07/2010 21:49:00,,2162.00,1341.00,407.00,195.00,129.00,167.00,91.00,56.00,APPROVED
PA: PITTSBURGH,01/07/2010 22:49:00,,2233.00,1396.00,418.00,203.00,130.00,172.00,95.00,56.00,APPROVED
PA: PITTSBURGH,01/07/2010 23:50:00,,2291.00,1459.00,444.00,212.00,136.00,182.00,95.00,55.00,APPROVED
PA: PITTSBURGH,01/08/2010 00:50:00,,2257.00,1431.00,430.00,210.00,134.00,176.00,96.00,57.00,APPROVED
PA: PITTSBURGH,01/08/2010 01:50:00,,2235.00,1422.00,422.00,207.00,133.00,173.00,97.00,55.00,APPROVED
PA: PITTSBURGH,01/08/2010 02:50:00,,2216.00,1403.00,422.00,210.00,132.00,171.00,97.00,55.00,APPROVED
PA: PITTSBURGH,01/08/2010 03:50:00,,2161.00,1341.00,403.00,197.00,129.00,164.00,96.00,55.00,APPROVED
PA: PITTSBURGH,01/08/2010 04:51:00,,2163.00,1332.00,393.00,194.00,127.00,162.00,93.00,54.00,APPROVED
PA: PITTSBURGH,01/08/2010 05:51:00,,2141.00,1325.00,395.00,192.00,125.00,159.00,91.00,53.00,APPROVED
PA: PITTSBURGH,01/08/2010 06:51:00,,2152.00,1334.00,394.00,193.00,128.00,164.00,93.00,55.00,APPROVED
PA: PITTSBURGH,01/08/2010 07:51:00,,2156.00,1351.00,399.00,195.00,125.00,167.00,94.00,52.00,APPROVED
PA: PITTSBURGH,01/08/2010 08:51:00,,2173.00,1348.00,404.00,194.00,128.00,164.00,93.00,54.00,APPROVED
PA: PITTSBURGH,01/08/2010 09:52:00,,2189.00,1367.00,406.00,199.00,127.00,166.00,93.00,54.00,APPROVED
PA: PITTSBURGH,01/08/2010 10:52:00,,2274.00,1465.00,437.00,209.00,134.00,182.00,97.00,55.00,APPROVED
PA: PITTSBURGH,01/08/2010 11:52:00,,2276.00,1484.00,452.00,215.00,136.00,190.00,98.00,55.00,APPROVED
PA: PITTSBURGH,01/08/2010 12:52:00,,2222.00,1450.00,437.00,213.00,138.00,181.00,98.00,56.00,APPROVED
PA: PITTSBURGH,01/08/2010 13:52:00,,2190.00,1409.00,431.00,210.00,135.00,177.00,99.00,54.00,APPROVED
PA: PITTSBURGH,01/08/2010 14:53:00,,2185.00,1419.00,430.00,213.00,134.00,177.00,96.00,55.00,APPROVED
PA: PITTSBURGH,01/08/2010 15:53:00,,2229.00,1438.00,433.00,212.00,136.00,181.00,98.00,55.00,APPROVED
PA: PITTSBURGH,01/08/2010 16:53:00,,2222.00,1436.00,435.00,210.00,134.00,179.00,99.00,57.00,APPROVED
PA: PITTSBURGH,01/08/2010 17:53:00,,2215.00,1426.00,434.00,218.00,135.00,182.00,96.00,56.00,APPROVED
PA: PITTSBURGH,01/08/2010 18:53:00,,2220.00,1424.00,430.00,209.00,134.00,181.00,96.00,55.00,APPROVED
PA: PITTSBURGH,01/08/2010 19:54:00,,2212.00,1413.00,431.00,202.00,134.00,176.00,93.00,55.00,APPROVED
PA: PITTSBURGH,01/08/2010 20:54:00,,2223.00,1423.00,434.00,207.00,136.00,180.00,95.00,56.00,APPROVED
PA: PITTSBURGH,01/08/2010 21:54:00,,2218.00,1424.00,435.00,207.00,135.00,179.00,95.00,55.00,APPROVED
PA: PITTSBURGH,01/08/2010 22:54:00,,2218.00,1425.00,429.00,208.00,133.00,178.00,94.00,55.00,APPROVED
PA: PITTSBURGH,01/08/2010 23:54:00,,2197.00,1402.00,427.00,205.00,134.00,177.00,93.00,55.00,APPROVED
PA: PITTSBURGH,01/09/2010 00:55:00,,2190.00,1388.00,423.00,203.00,129.00,177.00,92.00,54.00,APPROVED
PA: PITTSBURGH,01/09/2010 01:55:00,,2169.00,1374.00,412.00,201.00,134.00,171.00,93.00,55.00,APPROVED
PA: PITTSBURGH,01/09/2010 02:55:00,,2172.00,1361.00,414.00,197.00,131.00,175.00,91.00,55.00,APPROVED
PA: PITTSBURGH,01/09/2010 03:55:00,,2167.00,1363.00,417.00,198.00,130.00,174.00,89.00,54.00,APPROVED
PA: PITTSBURGH,01/09/2010 04:55:00,,2192.00,1368.00,415.00,201.00,131.00,175.00,90.00,56.00,APPROVED
PA: PITTSBURGH,01/09/2010 05:56:00,,2187.00,1394.00,418.00,201.00,130.00,177.00,91.00,53.00,APPROVED
PA: PITTSBURGH,01/09/2010 06:56:00,,2168.00,1361.00,419.00,200.00,129.00,174.00,90.00,54.00,APPROVED
PA: PITTSBURGH,01/09/2010 07:56:00,,2157.00,1342.00,408.00,195.00,128.00,170.00,88.00,55.00,APPROVED
PA: PITTSBURGH,01/09/2010 08:56:00,,2152.00,1348.00,414.00,193.00,128.00,171.00,88.00,53.00,APPROVED
PA: PITTSBURGH,01/09/2010 09:56:00,,2119.00,1321.00,399.00,192.00,126.00,168.00,85.00,53.00,APPROVED
PA: PITTSBURGH,01/09/2010 10:57:00,,2020.00,1233.00,375.00,179.00,119.00,157.00,81.00,51.00,APPROVED
PA: PITTSBURGH,01/09/2010 11:57:00,,1995.00,1198.00,354.00,173.00,117.00,149.00,77.00,53.00,APPROVED
PA: PITTSBURGH,01/09/2010 12:57:00,,1988.00,1187.00,352.00,169.00,114.00,145.00,79.00,52.00,APPROVED
PA: PITTSBURGH,01/09/2010 13:57:00,,1995.00,1177.00,349.00,167.00,116.00,147.00,75.00,50.00,APPROVED
PA: PITTSBURGH,01/09/2010 14:57:00,,1995.00,1188.00,353.00,169.00,114.00,147.00,78.00,53.00,APPROVED
PA: PITTSBURGH,01/09/2010 15:58:00,,1995.00,1188.00,353.00,166.00,117.00,148.00,76.00,52.00,APPROVED
PA: PITTSBURGH,01/09/2010 16:58:00,,2002.00,1188.00,349.00,168.00,116.00,148.00,76.00,53.00,APPROVED
PA: PITTSBURGH,01/09/2010 17:58:00,,1988.00,1186.00,354.00,171.00,113.00,147.00,79.00,50.00,APPROVED
PA: PITTSBURGH,01/09/2010 18:58:00,,1986.00,1185.00,349.00,168.00,116.00,142.00,81.00,54.00,APPROVED
PA: PITTSBURGH,01/09/2010 19:58:00,,1993.00,1177.00,348.00,165.00,114.00,141.00,81.00,51.00,APPROVED
PA: PITTSBURGH,01/09/2010 20:58:00,,1992.00,1185.00,349.00,170.00,114.00,143.00,82.00,52.00,APPROVED
PA: PITTSBURGH,01/09/2010 21:59:00,,1975.00,1187.00,347.00,166.00,118.00,141.00,82.00,53.00,APPROVED
PA: PITTSBURGH,01/09/2010 22:59:00,,1980.00,1170.00,346.00,168.00,111.00,144.00,80.00,51.00,APPROVED
PA: PITTSBURGH,01/09/2010 23:59:00,,1965.00,1163.00,348.00,166.00,113.00,142.00,78.00,53.00,APPROVED
PA: PITTSBURGH,01/10/2010 00:59:00,,1972.00,1181.00,348.00,166.00,114.00,144.00,77.00,51.00,APPROVED
PA: PITTSBURGH,01/10/2010 01:59:00,,1979.00,1185.00,353.00,169.00,113.00,145.00,79.00,51.00,APPROVED
PA: PITTSBURGH,01/10/2010 03:00:00,,1981.00,1181.00,352.00,167.00,113.00,145.00,81.00,52.00,APPROVED
PA: PITTSBURGH,01/10/2010 04:00:00,,1973.00,1196.00,355.00,172.00,114.00,145.00,81.00,52.00,APPROVED
PA: PITTSBURGH,01/10/2010 05:00:00,,2050.00,1263.00,379.00,180.00,120.00,154.00,85.00,52.00,APPROVED
PA: PITTSBURGH,01/10/2010 06:00:00,,2105.00,1335.00,397.00,194.00,125.00,164.00,89.00,55.00,APPROVED
PA: PITTSBURGH,01/10/2010 07:00:00,,2190.00,1400.00,420.00,204.00,130.00,174.00,96.00,55.00,APPROVED
PA: PITTSBURGH,01/10/2010 08:01:00,,2236.00,1430.00,428.00,211.00,134.00,176.00,99.00,55.00,APPROVED
PA: PITTSBURGH,01/10/2010 09:01:00,,2237.00,1464.00,437.00,215.00,136.00,184.00,99.00,55.00,APPROVED
PA: PITTSBURGH,01/10/2010 10:01:00,,2309.00,1520.00,460.00,223.00,143.00,193.00,104.00,57.00,APPROVED
PA: PITTSBURGH,01/10/2010 11:01:00,,2300.00,1537.00,464.00,229.00,142.00,192.00,104.00,56.00,APPROVED
PA: PITTSBURGH,01/10/2010 12:01:00,,2183.00,1445.00,446.00,219.00,134.00,183.00,98.00,57.00,APPROVED
PA: PITTSBURGH,01/10/2010 14:02:00,,2164.00,1375.00,416.00,207.00,129.00,170.00,96.00,54.00,APPROVED
PA: PITTSBURGH,01/10/2010 15:02:00,,2129.00,1367.00,410.00,204.00,129.00,167.00,94.00,53.00,APPROVED
PA: PITTSBURGH,01/10/2010 16:02:00,,2121.00,1344.00,403.00,199.00,129.00,167.00,93.00,54.00,APPROVED
PA: PITTSBURGH,01/10/2010 17:02:00,,2081.00,1297.00,395.00,191.00,123.00,165.00,90.00,54.00,APPROVED
PA: PITTSBURGH,01/10/2010 18:03:00,,2054.00,1250.00,380.00,183.00,121.00,158.00,85.00,53.00,APPROVED
PA: PITTSBURGH,01/10/2010 19:03:00,,2028.00,1220.00,367.00,175.00,118.00,150.00,82.00,53.00,APPROVED
PA: PITTSBURGH,01/10/2010 20:03:00,,2029.00,1214.00,367.00,175.00,118.00,150.00,78.00,52.00,APPROVED